Weather History for New Philadelphia, OH

Change the Weather History Date:

Wednesday, August 27, 2014

  Actual Average Record
Temperature  
Mean Temperature 75 °F 70 °F  
Max Temperature 85 °F 82 °F 95 °F (1993)
Min Temperature 64 °F 58 °F 43 °F (1968)
Degree Days  
Heating Degree Days 0 0  
Month to date heating degree days 13 0  
Since 1 June heating degree days 42 38  
Since 1 July heating degree days 32 3  
Cooling Degree Days 10 5  
Month to date cooling degree days 138 180  
Year to date cooling degree days 533 600  
Since 1 June cooling degree days 467 557  
Growing Degree Days 25 (Base 50)    
Moisture  
Dew Point 68 °F    
Average Humidity 81    
Maximum Humidity 97    
Minimum Humidity 65    
Precipitation  
Precipitation 0.00 in 0.14 in 1.14 in (1987)
Month to date precipitation 6.52 3.07  
Year to date precipitation 31.45 26.43  
Sea Level Pressure  
Sea Level Pressure 30.06 in    
Wind  
Wind Speed 3 mph (NNW)    
Max Wind Speed 14 mph    
Max Gust Speed 18 mph    
Visibility 8 miles    
Events Thunderstorm    
T = Trace of Precipitation, MM = Missing Value Source: NWS Daily Summary

Daily Weather History Graph

Daily Weather History Graph

Search for Another Location

Airport:

Trip Planner

Search our weather history database for the weather conditions in past years. The results will help you decide how hot, cold, wet, or windy it might be!

Date:

Astronomy

Aug. 27, 2014 Rise Set
Actual Time 6:48 AM EDT 8:05 PM EDT
Civil Twilight 6:19 AM EDT 8:33 PM EDT
Nautical Twilight 5:45 AM EDT 9:07 PM EDT
Astronomical Twilight 5:10 AM EDT 9:43 PM EDT
Moon 8:43 AM EDT (8/27) 8:56 PM EDT (8/27)
Length of Visible Light 14h 13m
Length of Day
13h 17m
Waxing Crescent, 4% of the Moon is Illuminated
Aug 27
Waxing Crescent
Sep 2
First Quarter
Sep 8
Full
Sep 15
Last Quarter
Sep 24
New

Hourly Weather History & Observations

Time (EDT) Temp. Heat Index Dew Point Humidity Pressure Visibility Wind Dir Wind Speed Gust Speed Precip Events Conditions
1:53 AM 69.1 °F - 68.0 °F 96% 30.08 in 6.0 mi Calm Calm - N/A   Scattered Clouds
2:53 AM 68.0 °F - 66.9 °F 96% 30.08 in 6.0 mi Calm Calm - N/A   Clear
3:53 AM 68.0 °F - 66.9 °F 96% 30.08 in 5.0 mi Calm Calm - N/A   Scattered Clouds
4:28 AM 66.0 °F - 66.0 °F 100% 30.09 in 2.5 mi SE 4.6 mph - N/A   Clear
4:37 AM 66.9 °F - 66.0 °F 97% 30.09 in 4.0 mi SE 3.5 mph - N/A   Clear
4:53 AM 68.0 °F - 66.9 °F 96% 30.08 in 5.0 mi Calm Calm - N/A   Mostly Cloudy
5:53 AM 69.1 °F - 68.0 °F 96% 30.07 in 4.0 mi Calm Calm - N/A   Mostly Cloudy
7:11 AM 66.9 °F - 66.9 °F 100% 30.10 in 1.5 mi Calm Calm - N/A   Clear
7:24 AM 68.0 °F - 66.9 °F 96% 30.10 in 2.0 mi Calm Calm - N/A   Clear
7:43 AM 69.1 °F - 68.0 °F 96% 30.11 in 3.0 mi Calm Calm - N/A   Clear
7:53 AM 69.1 °F - 68.0 °F 96% 30.09 in 3.0 mi Calm Calm - N/A   Clear
8:53 AM 72.0 °F - 69.1 °F 91% 30.09 in 8.0 mi Calm Calm - N/A   Mostly Cloudy
9:53 AM 75.9 °F - 71.1 °F 85% 30.09 in 9.0 mi Calm Calm - N/A   Partly Cloudy
12:53 PM 84.0 °F 89.0 °F 71.1 °F 65% 30.06 in 10.0 mi Calm Calm - N/A   Partly Cloudy
1:53 PM 82.9 °F 87.5 °F 71.1 °F 67% 30.05 in 10.0 mi NW 6.9 mph - N/A   Mostly Cloudy
3:53 PM 82.9 °F 88.0 °F 72.0 °F 69% 30.02 in 10.0 mi WNW 6.9 mph - N/A   Scattered Clouds
4:53 PM 82.9 °F 87.5 °F 71.1 °F 67% 30.01 in 10.0 mi NW 9.2 mph - N/A   Scattered Clouds
5:09 PM 84.0 °F 89.6 °F 72.0 °F 67% 30.03 in 10.0 mi WNW 8.1 mph - N/A Thunderstorm Scattered Clouds
5:24 PM 82.9 °F 88.0 °F 72.0 °F 69% 30.02 in 10.0 mi North 9.2 mph - N/A   Mostly Cloudy
5:53 PM 82.0 °F 86.3 °F 71.1 °F 69% 30.00 in 10.0 mi NNW 6.9 mph - N/A   Mostly Cloudy
6:53 PM 78.1 °F - 70.0 °F 76% 30.00 in 10.0 mi NNW 13.8 mph - N/A   Partly Cloudy
7:53 PM 75.0 °F - 68.0 °F 79% 30.02 in 10.0 mi NNW 6.9 mph - N/A   Clear
8:46 PM 73.9 °F - 66.0 °F 76% 30.06 in 10.0 mi North 9.2 mph - N/A   Overcast
8:53 PM 73.0 °F - 66.0 °F 79% 30.04 in 10.0 mi NNW 6.9 mph - N/A   Overcast
9:20 PM 72.0 °F - 64.9 °F 78% 30.07 in 10.0 mi NNW 6.9 mph - N/A   Scattered Clouds
9:53 PM 70.0 °F - 63.0 °F 78% 30.07 in 10.0 mi North 8.1 mph - N/A   Clear
10:53 PM 66.9 °F - 62.1 °F 84% 30.08 in 10.0 mi Calm Calm - N/A   Clear
11:53 PM 66.0 °F - 61.0 °F 84% 30.09 in 10.0 mi Calm Calm - N/A   Clear